This demonstration page uses our WeatherBlox Daily Observations layout. Learn more.

Left ArrowRight Arrow

39.29038, -76.61219

Hourly Observations for January 29, 2015

Temp ( °F °C ) Dew Point ( °F °C ) Humidity (%) Winds ( mph kmh ) Pressure ( in mb ) Visibility ( mi km ) Precip ( " mm )
12:54 am 00:54 undefined 28 -2.2 4 -15.6 35 35 undefined N/A 30.32 1027 N/A 0.00 0.00
1:54 am 01:54 undefined 26 -3.3 6 -14.4 42 42 undefined N/A 30.32 1027 N/A 0.00 0.00
2:54 am 02:54 undefined 26 -3.3 6 -14.4 42 42 undefined N/A 30.32 1027 N/A 0.00 0.00
3:54 am 03:54 undefined 26 -3.3 5 -15 40 40 undefined N/A 30.33 1027 N/A 0.00 0.00
4:54 am 04:54 undefined 26 -3.3 5 -15 40 40 undefined N/A 30.32 1027 N/A 0.00 0.00
5:54 am 05:54 undefined 26 -3.3 6 -14.4 42 42 undefined N/A 30.33 1027 N/A 0.00 0.00
6:54 am 06:54 undefined 25 -3.9 8 -13.3 48 48 undefined N/A 30.34 1028 N/A 0.00 0.00
7:54 am 07:54 undefined 27 -2.8 8 -13.3 45 45 undefined N/A 30.32 1027 N/A 0.00 0.00
8:54 am 08:54 undefined 28 -2.2 7 -13.9 41 41 undefined N/A 30.32 1027 N/A 0.00 0.00
9:54 am 09:54 undefined 29 -1.7 8 -13.3 41 41 undefined N/A 30.30 1026 N/A 0.00 0.00
10:54 am 10:54 undefined 30 -1.1 11 -11.7 45 45 undefined N/A 30.29 1026 N/A 0.00 0.00
11:54 am 11:54 undefined 31 -0.6 13 -10.6 47 47 undefined N/A 30.26 1025 N/A 0.00 0.00
12:54 pm 12:54 undefined 32 0 13 -10.6 45 45 undefined N/A 30.22 1023 N/A 0.00 0.00
1:54 pm 13:54 undefined 33 0.6 11 -11.7 40 40 undefined N/A 30.16 1022 N/A 0.00 0.00
2:54 pm 14:54 undefined 34 1.1 15 -9.4 46 46 undefined N/A 30.15 1021 N/A 0.00 0.00
3:54 pm 15:54 undefined 34 1.1 17 -8.3 50 50 undefined N/A 30.12 1020 N/A 0.00 0.00
4:54 pm 16:54 undefined 34 1.1 19 -7.2 54 54 undefined N/A 30.11 1020 N/A 0.00 0.00
5:54 pm 17:54 undefined 32 0 25 -3.9 75 75 undefined N/A 30.10 1019 N/A 0.04 1.02
6:54 pm 18:54 undefined 32 0 26 -3.3 79 79 undefined N/A 30.07 1018 N/A 0.00 0.00
7:54 pm 19:54 undefined 33 0.6 26 -3.3 75 75 undefined N/A 30.05 1018 N/A 0.00 0.00
8:54 pm 20:54 undefined 34 1.1 26 -3.3 73 73 undefined N/A 30.01 1016 N/A 0.00 0.00
9:54 pm 21:54 undefined 35 1.7 27 -2.8 72 72 undefined N/A 29.98 1015 N/A 0.00 0.00
10:54 pm 22:54 undefined 35 1.7 26 -3.3 70 70 undefined N/A 29.95 1014 N/A 0.00 0.00
11:54 pm 23:54 undefined 36 2.2 26 -3.3 67 67 undefined N/A 29.93 1014 N/A 0.00 0.00

Powered by AerisWeather